This demonstration page uses our WeatherBlox Daily Observations layout. Learn more.

Left ArrowRight Arrow

40.92945, -100.16068

Hourly Observations for July 10, 2019

Temp ( °F °C ) Dew Point ( °F °C ) Humidity (%) Winds ( mph kmh ) Pressure ( in mb ) Visibility ( mi km ) Precip ( " mm )
12:15 am 00:15 Mostly Cloudy 70 21.2 67 19.3 89 89 NE 6 9 29.94 1014 10 16 N/A
12:35 am 00:35 Mostly Cloudy 70 21.2 67 19.6 91 91 NNW 5 7 29.96 1015 7 11 N/A
12:55 am 00:55 Mostly Cloudy with Light Rain 71 21.6 67 19.5 88 88 NE 6 9 29.96 1014 10 16 0.01 0.25
1:15 am 01:15 Partly Cloudy 70 21 67 19.5 91 91 N 12 19 29.96 1015 10 16 N/A
1:35 am 01:35 Partly Cloudy with Thunderstorms 69 20.8 65 18.6 87 87 NNE 8 13 29.95 1014 10 16 N/A
1:55 am 01:55 Mostly Cloudy 69 20.3 66 19 92 92 NNW 20 31 30.04 1017 10 16 0.01 0.25
2:15 am 02:15 Mostly Cloudy 64 17.9 61 16 89 89 N 21 33 30.04 1017 10 16 0.01 0.25
2:35 am 02:35 Partly Cloudy 63 17.4 59 15.2 87 87 N 17 28 30.04 1017 10 16 0.01 0.25
2:55 am 02:55 Partly Cloudy 63 17.4 60 15.5 89 89 N 13 20 30.06 1018 10 16 0.01 0.25
3:15 am 03:15 Cloudy 64 17.5 60 15.8 90 90 ESE 9 15 30.03 1017 3 5 0.12 3.05
3:35 am 03:35 Mostly Cloudy with Nearby Thunderstorms 64 17.5 62 16.4 93 93 N 12 19 30.02 1017 10 16 0.13 3.30
3:55 am 03:55 Mostly Cloudy 65 18.4 62 16.4 88 88 N 5 7 30.06 1018 10 16 0.13 3.30
4:15 am 04:15 Cloudy 64 18 62 16.5 91 91 N 10 17 30.07 1018 10 16 N/A
4:35 am 04:35 Mostly Cloudy 64 17.7 62 16.5 93 93 NNW 10 17 30.08 1019 10 16 N/A
4:55 am 04:55 Mostly Cloudy with Light Rain 64 17.6 60 15.8 89 89 N 10 17 30.08 1019 10 16 N/A
5:15 am 05:15 Partly Cloudy 63 17.2 60 15.5 90 90 NNW 9 15 30.10 1019 10 16 N/A
5:35 am 05:35 Partly Cloudy 63 17 60 15.5 91 91 WNW 7 11 30.12 1020 10 16 N/A
5:55 am 05:55 Clear 62 16.5 59 15.2 92 92 NNW 9 15 30.11 1020 10 16 N/A
6:15 am 06:15 Clear 61 16.2 59 15 93 93 NW 3 6 30.12 1020 10 16 N/A
6:35 am 06:35 Sunny 61 15.9 58 14.5 91 91 NNW 6 9 30.14 1021 10 16 N/A
6:55 am 06:55 Sunny 60 15.8 57 14.1 90 90 NNW 5 7 30.15 1021 10 16 N/A
7:15 am 07:15 Sunny 60 15.6 57 13.7 89 89 N N/A 30.15 1021 10 16 N/A
7:35 am 07:35 Sunny 61 16 57 14.1 89 89 NW 6 9 30.16 1021 10 16 N/A
7:55 am 07:55 Partly Cloudy 63 17 57 13.8 82 82 NW 5 7 30.16 1021 10 16 N/A
8:15 am 08:15 Mostly Cloudy 63 17.3 58 14.2 82 82 NW 5 7 30.16 1021 10 16 N/A
8:55 am 08:55 Partly Cloudy 65 18.5 57 13.9 75 75 NW 5 7 30.16 1021 10 16 N/A
9:15 am 09:15 Sunny 67 19.3 58 14.6 74 74 NW 7 11 30.16 1021 10 16 N/A
9:35 am 09:35 Sunny 68 20.1 57 13.9 68 68 NNW 8 13 30.16 1021 10 16 N/A
9:55 am 09:55 Sunny 70 21 57 14.1 65 65 NNW 9 15 30.14 1021 10 16 N/A
10:15 am 10:15 Sunny 71 21.6 56 13.1 59 59 N 14 22 30.14 1021 10 16 N/A
10:35 am 10:35 Sunny 71 21.8 55 12.9 57 57 N 13 20 30.14 1021 10 16 N/A
10:55 am 10:55 Sunny 72 22.1 56 13.1 57 57 NNW 14 22 30.14 1021 10 16 N/A
11:15 am 11:15 Sunny 73 22.5 55 12.8 54 54 N 12 19 30.14 1021 10 16 N/A
11:35 am 11:35 Sunny 73 22.9 56 13.6 56 56 N 10 17 30.14 1021 10 16 N/A
11:55 am 11:55 Sunny 73 22.9 56 13.5 56 56 NNW 13 20 30.14 1021 10 16 N/A
12:15 pm 12:15 Sunny 74 23.1 56 13.2 54 54 NNW 7 11 30.13 1020 10 16 N/A
12:35 pm 12:35 Sunny 74 23.5 57 14.1 56 56 NNW 8 13 30.13 1020 10 16 N/A
12:55 pm 12:55 Sunny 74 23.6 58 14.4 56 56 NW 8 13 30.12 1020 10 16 N/A
1:15 pm 13:15 Sunny 75 24 60 15.3 58 58 NW 10 17 30.12 1020 10 16 N/A
1:30 pm 13:30 Sunny 76 24.3 59 15.1 57 57 NW 14 22 30.11 1020 10 16 N/A
1:55 pm 13:55 Sunny 76 24.4 60 15.8 59 59 NW 10 17 30.10 1019 10 16 N/A
2:15 pm 14:15 Sunny 76 24.6 59 15.1 56 56 NW 12 19 30.10 1019 10 16 N/A
2:35 pm 14:35 Sunny 77 24.8 58 14.3 52 52 NNW 10 17 30.09 1019 10 16 N/A
2:55 pm 14:55 Sunny 77 25.1 59 15 54 54 WNW 10 17 30.09 1019 10 16 N/A
3:15 pm 15:15 Sunny 78 25.7 61 16.3 56 56 NW 12 19 30.07 1018 10 16 N/A
3:35 pm 15:35 Sunny 78 25.8 60 15.6 53 53 NNW 8 13 30.06 1018 10 16 N/A
3:55 pm 15:55 Sunny 79 26 60 15.6 53 53 NW 12 19 30.07 1018 10 16 N/A
4:15 pm 16:15 Sunny 80 26.4 61 16.2 54 54 NNW 10 17 30.06 1018 10 16 N/A
4:35 pm 16:35 Sunny 80 26.4 60 15.3 51 51 NW 10 17 30.06 1018 10 16 N/A
4:55 pm 16:55 Sunny 80 26.5 60 15.3 50 50 NW 10 17 30.06 1018 10 16 N/A
5:15 pm 17:15 Sunny 80 26.5 60 15.3 50 50 NW 12 19 30.05 1017 10 16 N/A
5:35 pm 17:35 Sunny 80 26.5 60 15.6 51 51 NNW 9 15 30.05 1017 10 16 N/A
5:55 pm 17:55 Sunny 80 26.5 59 15.1 50 50 NNW 8 13 30.05 1017 10 16 N/A
6:15 pm 18:15 Sunny 80 26.5 61 16.1 53 53 NNW 6 9 30.04 1017 10 16 N/A
6:35 pm 18:35 Sunny 80 26.4 60 15.8 52 52 N 8 13 30.04 1017 10 16 N/A
6:55 pm 18:55 Sunny 79 26.2 61 16.1 54 54 NNW 5 7 30.04 1017 10 16 N/A
7:15 pm 19:15 Sunny 78 25.8 63 17.2 59 59 NNW 3 6 30.04 1017 10 16 N/A
7:35 pm 19:35 Sunny 78 25.4 63 17.1 60 60 N 5 7 30.05 1017 10 16 N/A
7:55 pm 19:55 Sunny 76 24.7 66 18.9 70 70 N 3 6 30.05 1018 10 16 N/A
8:15 pm 20:15 Sunny 75 24 65 18.6 72 72 NNE 3 6 30.07 1018 10 16 N/A
8:35 pm 20:35 Sunny 73 22.9 64 17.9 74 74 NNE 6 9 30.08 1019 10 16 N/A
8:55 pm 20:55 Sunny 71 21.9 65 18.3 80 80 NNE 5 7 30.09 1019 10 16 N/A
9:15 pm 21:15 Clear 70 21.3 65 18.2 83 83 NNE 5 7 30.10 1019 10 16 N/A
9:35 pm 21:35 Clear 69 20.7 64 17.7 83 83 NE 3 6 30.11 1019 10 16 N/A
9:55 pm 21:55 Clear 67 19.7 63 17.4 87 87 NE 6 9 30.11 1020 10 16 N/A
10:15 pm 22:15 Clear 67 19.5 63 17 86 86 NE 5 7 30.13 1020 10 16 N/A
10:35 pm 22:35 Clear 66 18.8 62 16.9 89 89 NE 5 7 30.14 1021 10 16 N/A
10:55 pm 22:55 Clear 65 18.2 62 16.7 91 91 N N/A 30.15 1021 10 16 N/A
11:15 pm 23:15 Clear 64 18 62 16.9 93 93 NE 5 7 30.16 1021 10 16 N/A
11:35 pm 23:35 Clear 64 17.5 62 16.5 94 94 N N/A 30.17 1022 10 16 N/A
11:55 pm 23:55 Clear 65 18.1 62 16.5 90 90 N N/A 30.17 1022 10 16 N/A

Powered by AerisWeather